| time (UTC) | temp F | wind direction | speed MPH | gust MPH | rain 1hr in | rain 24hr in | rain mn in | humidity % | barometer mb |
| 20260506101338 | 51 | 224 | 0.0 | 1.0 | 0.00 | 0.00 | 0.00 | 100 | 1019.5 |
| 20260506095934 | 50 | 200 | 2.0 | 2.0 | 0.00 | 0.00 | 0.00 | 100 | 1019.5 |
| 20260506094530 | 50 | 222 | 0.0 | 0.0 | 0.00 | 0.00 | 0.00 | 100 | 1019.6 |
| 20260506093127 | 50 | 222 | 0.0 | 0.0 | 0.00 | 0.00 | 0.00 | 100 | 1019.7 |
| 20260506091722 | 50 | 274 | 2.0 | 1.0 | 0.00 | 0.00 | 0.00 | 100 | 1019.5 |
| 20260506090317 | 50 | 322 | 1.0 | 1.0 | 0.00 | 0.00 | 0.00 | 100 | 1019.6 |
| 20260506084913 | 51 | 347 | 3.0 | 2.0 | 0.00 | 0.00 | 0.00 | 100 | 1019.8 |
| 20260506083509 | 51 | 23 | 3.0 | 4.0 | 0.00 | 0.00 | 0.00 | 99 | 1019.9 |
| 20260506082108 | 51 | 264 | 1.0 | 0.0 | 0.00 | 0.00 | 0.00 | 98 | 1019.9 |
| 20260506080703 | 51 | 277 | 1.0 | 1.0 | 0.00 | 0.00 | 0.00 | 99 | 1019.9 |
| 20260506072452 | 51 | 284 | 3.0 | 4.0 | 0.00 | 0.00 | 0.00 | 100 | 1020.5 |
| 20260506071048 | 51 | 285 | 2.0 | 2.0 | 0.00 | 0.00 | 0.00 | 100 | 1020.6 |
| 20260506061434 | 52 | 200 | 3.0 | 3.0 | 0.00 | 0.00 | 0.00 | 100 | 1020.2 |
| 20260506050411 | 52 | 3 | 4.0 | 4.0 | 0.00 | 0.00 | 0.00 | 100 | 1020.1 |
| 20260506045009 | 52 | 333 | 0.0 | 0.0 | 0.00 | 0.00 | 0.00 | 100 | 1019.8 |
| 20260506043603 | 52 | 77 | 0.0 | 2.0 | 0.00 | 0.00 | 0.00 | 100 | 1020.0 |
| 20260506042200 | 52 | 195 | 4.0 | 5.0 | 0.00 | 0.00 | 0.00 | 100 | 1019.7 |
| 20260506040754 | 52 | 165 | 3.0 | 4.0 | 0.00 | 0.00 | 0.00 | 100 | 1019.8 |
| 20260506035349 | 53 | 28 | 6.0 | 3.0 | 0.00 | 0.00 | 0.00 | 100 | 1019.8 |
| 20260506033943 | 53 | 30 | 0.0 | 0.0 | 0.00 | 0.00 | 0.00 | 100 | 1019.6 |
| 20260506032538 | 53 | 60 | 5.0 | 3.0 | 0.00 | 0.00 | 0.00 | 100 | 1019.6 |
| 20260506031138 | 53 | 149 | 2.0 | 1.0 | 0.00 | 0.00 | 0.00 | 100 | 1019.6 |
| 20260506025730 | 53 | 315 | 1.0 | 2.0 | 0.00 | 0.00 | 0.00 | 100 | 1019.7 |
| 20260506024324 | 53 | 156 | 2.0 | 1.0 | 0.00 | 0.00 | 0.00 | 100 | 1019.3 |
| 20260506022919 | 53 | 63 | 3.0 | 3.0 | 0.00 | 0.00 | 0.00 | 100 | 1019.3 |
| 20260506021514 | 53 | 359 | 3.0 | 3.0 | 0.00 | 0.00 | 0.00 | 100 | 1019.4 |
| 20260506020113 | 52 | 301 | 0.0 | 0.0 | 0.00 | 0.00 | 0.00 | 100 | 1019.3 |
| 20260506014711 | 52 | 326 | 2.0 | 3.0 | 0.00 | 0.00 | 0.00 | 100 | 1019.3 |
| 20260506013308 | 52 | 357 | 4.0 | 3.0 | 0.00 | 0.00 | 0.00 | 100 | 1019.1 |
| 20260506011900 | 52 | 27 | 4.0 | 4.0 | 0.00 | 0.00 | 0.00 | 100 | 1019.4 |
| 20260506010500 | 52 | 343 | 4.0 | 3.0 | 0.00 | 0.00 | 0.00 | 100 | 1019.4 |
| 20260506005054 | 52 | 338 | 3.0 | 3.0 | 0.00 | 0.00 | 0.00 | 100 | 1019.4 |
| 20260506003653 | 52 | 335 | 1.0 | 1.0 | 0.00 | 0.00 | 0.00 | 100 | 1019.1 |
| 20260506002250 | 51 | 44 | 2.0 | 2.0 | 0.00 | 0.00 | 0.00 | 100 | 1019.0 |
| 20260506000843 | 49 | 35 | 3.0 | 2.0 | 0.00 | 0.00 | 0.00 | 100 | 1019.1 |
| 20260505235439 | 48 | 100 | 2.0 | 2.0 | 0.00 | 0.00 | 0.00 | 100 | 1019.4 |
| 20260505234037 | 47 | 117 | 0.0 | 0.0 | 0.00 | 0.00 | 0.00 | 100 | 1019.5 |
| 20260505232631 | 47 | 98 | 2.0 | 2.0 | 0.00 | 0.00 | 0.00 | 100 | 1019.5 |
| 20260505231231 | 46 | 257 | 1.0 | 2.0 | 0.00 | 0.00 | 0.00 | 100 | 1019.5 |
| 20260505225828 | 45 | 169 | 3.0 | 1.0 | 0.00 | 0.00 | 0.00 | 100 | 1019.3 |
| 20260505224418 | 45 | 174 | 1.0 | 5.0 | 0.00 | 0.00 | 0.00 | 100 | 1019.4 |
| 20260505221611 | 43 | 131 | 2.0 | 3.0 | 0.00 | 0.00 | 0.00 | 100 | 1019.5 |
| 20260505220210 | 43 | 179 | 4.0 | 3.0 | 0.00 | 0.00 | 0.00 | 100 | 1019.3 |
| 20260505214808 | 42 | 180 | 5.0 | 6.0 | 0.00 | 0.00 | 0.00 | 100 | 1019.4 |
| 20260505213404 | 41 | 228 | 3.0 | 3.0 | 0.00 | 0.00 | 0.00 | 100 | 1019.3 |
| 20260505212003 | 41 | 158 | 2.0 | 1.0 | 0.00 | 0.00 | 0.00 | 100 | 1019.1 |
| 20260505210601 | 40 | 204 | 4.0 | 6.0 | 0.00 | 0.00 | 0.00 | 100 | 1018.8 |
| 20260505205158 | 39 | 193 | 4.0 | 4.0 | 0.00 | 0.00 | 0.00 | 100 | 1018.8 |
| 20260505203757 | 39 | 240 | 2.0 | 2.0 | 0.00 | 0.00 | 0.00 | 100 | 1018.8 |
| 20260505202352 | 38 | 191 | 4.0 | 1.0 | 0.00 | 0.00 | 0.00 | 100 | 1018.8 |
| 20260505200950 | 38 | 222 | 2.0 | 4.0 | 0.00 | 0.00 | 0.00 | 100 | 1018.8 |
| 20260505195547 | 37 | 169 | 0.0 | 0.0 | 0.00 | 0.00 | 0.00 | 100 | 1018.8 |
| 20260505194142 | 37 | 260 | 2.0 | 1.0 | 0.00 | 0.00 | 0.00 | 100 | 1018.7 |
| 20260505192738 | 38 | 245 | 1.0 | 0.0 | 0.00 | 0.00 | 0.00 | 100 | 1018.7 |
| 20260505191335 | 38 | 38 | 0.0 | 0.0 | 0.00 | 0.00 | 0.00 | 100 | 1018.8 |
| 20260505185931 | 38 | 342 | 2.0 | 2.0 | 0.00 | 0.00 | 0.00 | 100 | 1018.8 |
| 20260505184525 | 39 | 122 | 0.0 | 0.0 | 0.00 | 0.00 | 0.00 | 100 | 1018.8 |
| 20260505183120 | 39 | 264 | 0.0 | 0.0 | 0.00 | 0.00 | 0.00 | 100 | 1018.9 |
| 20260505181715 | 39 | 105 | 0.0 | 0.0 | 0.00 | 0.00 | 0.00 | 100 | 1019.1 |
| 20260505180309 | 39 | 158 | 2.0 | 2.0 | 0.00 | 0.00 | 0.00 | 100 | 1019.5 |
| 20260505174906 | 39 | 250 | 1.0 | 1.0 | 0.00 | 0.00 | 0.00 | 100 | 1019.5 |
| 20260505173502 | 39 | 184 | 0.0 | 0.0 | 0.00 | 0.00 | 0.00 | 100 | 1019.6 |
| 20260505172058 | 39 | 212 | 0.0 | 3.0 | 0.00 | 0.00 | 0.00 | 100 | 1019.5 |
| 20260505170654 | 39 | 330 | 1.0 | 3.0 | 0.00 | 0.00 | 0.00 | 100 | 1019.6 |
| 20260505165250 | 40 | 20 | 4.0 | 1.0 | 0.00 | 0.00 | 0.00 | 100 | 1019.7 |
| 20260505163845 | 40 | 316 | 3.0 | 2.0 | 0.00 | 0.00 | 0.00 | 100 | 1019.9 |
| 20260505162441 | 40 | 321 | 3.0 | 2.0 | 0.00 | 0.00 | 0.00 | 100 | 1020.1 |
| 20260505161041 | 40 | 335 | 3.0 | 5.0 | 0.00 | 0.00 | 0.00 | 100 | 1020.3 |
| 20260505152823 | 42 | 35 | 2.0 | 1.0 | 0.00 | 0.00 | 0.00 | 100 | 1020.5 |
| 20260505151420 | 43 | 278 | 1.0 | 2.0 | 0.00 | 0.00 | 0.00 | 100 | 1020.9 |
| 20260505140401 | 44 | 302 | 1.0 | 1.0 | 0.00 | 0.00 | 0.00 | 100 | 1022.0 |
| 20260505123933 | 45 | 18 | 1.0 | 3.0 | 0.00 | 0.00 | 0.00 | 100 | 1023.0 |
| 20260505122533 | 45 | 44 | 0.0 | 2.0 | 0.00 | 0.00 | 0.00 | 100 | 1023.1 |
| 20260505121128 | 45 | 0 | 0.0 | 0.0 | 0.00 | 0.00 | 0.00 | 100 | 1023.2 |
| 20260505115722 | 45 | 13 | 1.0 | 0.0 | 0.00 | 0.00 | 0.00 | 100 | 1023.4 |
| 20260505112916 | 45 | 339 | 2.0 | 2.0 | 0.00 | 0.00 | 0.00 | 100 | 1023.8 |
| 20260505111509 | 45 | 72 | 0.0 | 0.0 | 0.00 | 0.00 | 0.00 | 100 | 1024.0 |
| 20260505110105 | 45 | 93 | 0.0 | 0.0 | 0.00 | 0.00 | 0.00 | 100 | 1024.2 |